Location: Gro� Glienicke
(52.4675°N, 13.1079°E)
Time: 18:44:56
(UTC+00:00)

Cosmos 2333 Rocket - Pass Details

Date: 06 July 2020
Orbit: 837 x 864 km, 70.8° (Epoch: 12 August)

Event Time Altitude Azimuth Distance (km) Brightness Sun altitude
Rises 22:13:19 0° 239° (WSW) 3,404 5.2 -13.9°
Reaches altitude 10° 22:15:56 10° 248° (WSW) 2,476 4.5 -14.0°
Maximum altitude 22:21:11 37° 315° (NW) 1,305 3.7 -14.1°
Drops below altitude 10° 22:26:31 10° 23° (NNE) 2,505 5.5 -14.3°
Sets 22:29:12 0° 31° (NNE) 3,449 6.2 -14.4°
